Vorticity
3 11 55 8 8 19 16 9 18 10 6 23 16 23 26 12 9 12 14 14 11 16 5 21 10 13 12 3 6 6 8 5 5 3 6 6 5 7 5 4 3 6 3 3 4 2 0
2 2 35 41 11 14 18 11 24 55 46 25 26 33 21 -10 19 5 32 31 17 10 20 12 13 11 7 5 9 7 6 5 6 8 6 6 5 6 6 7 4 5 5 2 2 1 2
2 1 18 45 19 10 12 17 7 21 41 34 25 37 8 -12 12 -7 19 15 15 18 19 20 20 11 15 5 4 6 6 9 9 12 10 9 9 8 7 7 7 5 3 4 6 5 6
5 8 11 3 9 18 9 18 8 21 2 31 18 36 20 25 14 24 11 7 9 16 17 11 13 17 9 13 12 15 15 7 2 -2 -0 1 2 4 7 9 8 9 5 2 3 7 12
5 6 15 11 -5 6 13 28 24 23 29 20 7 1 -6 15 -7 3 8 17 11 13 11 11 11 13 16 9 0 -3 -1 6 9 11 16 15 11 8 11 11 11 8 9 2 0 7 9
8 7 7 10 24 8 9 -3 23 16 -1 41 -31 12 2 0 3 -2 -3 -1 6 8 8 11 13 12 14 18 23 19 17 15 10 9 10 7 7 5 4 5 4 7 8 6 7 6 9
6 9 7 12 4 11 9 10 -0 19 15 1 -7 -2 -6 -9 -3 -1 5 9 9 12 11 5 6 4 7 4 6 8 9 10 9 11 10 10 9 8 9 10 8 8 14 11 9 12 12
5 5 10 8 7 12 16 11 11 10 8 13 5 2 3 3 2 5 6 9 7 9 13 9 9 6 6 8 7 8 9 10 9 10 9 8 8 9 8 7 10 12 9 11 7 7 11
15 7 5 7 10 8 11 11 11 10 10 11 12 12 11 12 10 12 13 11 6 5 7 10 13 17 18 22 24 21 18 17 13 14 14 13 12 14 14 16 14 12 19 14 20 17 15
8 16 7 5 6 9 10 8 11 13 10 16 21 19 21 24 17 17 17 21 31 35 17 29 23 28 26 19 21 20 24 25 27 29 29 30 29 25 30 31 30 28 28 30 31 29 28
5 2 12 11 10 7 8 9 8 8 7 9 6 2 15 11 35 28 25 28 34 26 28 18 2 8 18 12 10 9 0 5 6 7 16 18 27 27 14 16 18 19 13 15 20 18 10
-2 3 3 10 8 12 9 8 7 9 9 7 6 8 5 4 13 24 23 24 29 22 12 -3 -3 1 13 15 6 8 14 12 16 15 9 1 -0 1 6 9 8 12 8 9 6 6 11
4 5 2 2 6 5 15 18 8 7 8 9 7 6 7 4 7 11 21 18 16 11 5 4 1 1 14 9 14 11 11 8 9 8 11 12 9 10 10 13 14 14 15 11 16 12 19
12 7 7 3 1 4 6 9 19 14 8 8 8 8 6 7 5 9 10 25 20 12 7 6 2 7 11 11 8 17 13 11 11 8 5 10 11 8 12 15 17 11 14 11 12 10 3
6 8 10 11 2 4 7 5 4 14 17 11 7 6 9 7 6 6 11 17 17 10 11 8 9 11 12 9 8 7 8 8 8 8 3 14 11 16 14 8 12 9 10 12 19 6 13
13 8 6 8 11 2 5 8 9 8 9 17 15 9 5 8 8 7 7 9 19 15 6 6 4 4 1 7 7 4 9 13 12 22 12 14 8 9 8 8 11 10 12 11 14 2 10
4 7 9 6 12 11 7 4 8 8 8 7 16 14 11 7 7 8 8 9 9 8 22 9 7 6 3 9 9 10 11 9 10 7 3 3 4 2 3 4 5 9 13 12 12 2 8
7 8 6 9 5 9 6 6 7 10 7 4 8 15 16 13 10 6 8 11 9 8 11 13 28 16 4 3 1 5 6 6 7 3 2 3 3 7 4 6 2 10 16 10 10 10 9
10 3 12 8 6 4 8 6 4 1 12 7 5 11 9 12 15 11 9 6 9 10 9 11 12 7 14 17 15 7 5 4 3 1 4 6 4 10 5 6 7 7 16 9 11 13 11
10 4 8 8 9 6 3 10 4 1 3 12 8 9 9 10 8 15 15 11 7 7 9 10 10 16 12 11 7 18 16 6 5 4 2 3 8 8 8 6 11 8 10 12 13 13 6
8 11 3 7 -2 9 5 3 5 7 0 4 5 1 5 9 11 10 13 22 11 8 7 6 10 9 11 14 16 16 6 16 18 9 5 4 6 6 6 8 7 9 17 9 18 7 9
6 11 7 5 8 -1 12 6 3 4 5 1 8 11 -1 9 9 11 5 12 18 15 9 8 8 9 12 12 11 15 16 9 11 8 15 6 4 4 5 7 4 10 9 6 20 37 27
11 5 13 3 7 7 5 2 7 6 1 2 3 3 7 0 6 13 12 9 8 13 16 16 11 10 7 6 12 10 15 10 11 17 15 12 6 4 6 5 5 1 7 10 7 3 4
3 7 8 13 4 6 4 5 -1 5 4 3 5 3 1 -1 8 7 12 9 9 8 11 13 16 18 12 8 6 10 13 13 13 12 22 15 10 4 3 4 3 4 8 6 7 6 10
5 7 8 15 6 3 3 3 5 3 -1 3 6 8 2 1 1 6 7 2 11 7 12 13 8 8 19 21 11 7 7 7 7 16 11 22 15 7 1 4 4 -1 5 1 -3 4 8
7 10 10 12 15 3 3 8 -4 6 3 2 -1 -1 6 6 0 3 7 5 2 6 10 12 8 18 14 3 20 16 8 6 5 8 12 15 26 7 1 6 7 3 5 1 -1 -1 6
7 7 11 7 13 11 4 2 -3 1 2 3 2 8 7 2 2 10 5 5 8 2 10 7 2 10 16 10 5 17 17 8 6 6 6 10 23 13 7 -1 8 8 2 0 5 0 -1
10 7 10 9 7 10 11 7 3 3 4 4 3 7 8 9 13 3 6 1 5 6 4 0 0 6 9 15 13 8 18 19 7 4 4 9 10 28 10 2 5 4 3 -0 -0 1 0
4 10 7 14 7 7 9 9 10 6 7 7 7 9 10 -2 4 8 3 4 3 14 5 6 7 8 9 11 17 10 7 21 20 7 4 5 7 8 19 12 12 16 8 10 11 7 6
Height
5666 5643 5622 5611 5604 5602 5600 5598 5593 5588 5585 5584 5589 5593 5604 5620 5637 5650 5659 5669 5676 5681 5686 5692 5698 5704 5708 5713 5717 5721 5723 5726 5729 5731 5735 5738 5740 5742 5744 5747 5750 5752 5754 5754 5756 5757 5760
5677 5655 5638 5625 5619 5613 5607 5603 5597 5591 5589 5589 5593 5601 5610 5621 5638 5650 5660 5670 5674 5679 5684 5690 5695 5700 5706 5710 5711 5714 5717 5718 5721 5724 5726 5729 5731 5733 5736 5738 5741 5743 5744 5744 5747 5748 5750
5688 5667 5653 5642 5634 5627 5619 5612 5608 5602 5599 5599 5603 5613 5621 5633 5647 5655 5662 5669 5675 5680 5684 5687 5691 5694 5698 5703 5705 5709 5711 5713 5715 5717 5720 5722 5724 5726 5727 5729 5731 5733 5735 5735 5735 5736 5737
5699 5682 5667 5659 5650 5644 5637 5629 5623 5619 5614 5616 5620 5627 5635 5643 5652 5664 5669 5672 5678 5679 5682 5684 5687 5690 5693 5695 5698 5701 5703 5707 5708 5710 5712 5713 5715 5717 5718 5720 5723 5723 5725 5725 5725 5725 5726
5708 5697 5683 5672 5666 5659 5653 5647 5640 5639 5637 5638 5642 5647 5651 5656 5665 5670 5672 5675 5676 5676 5679 5680 5683 5687 5689 5690 5692 5694 5695 5697 5699 5700 5703 5705 5706 5708 5710 5711 5712 5713 5715 5716 5717 5714 5716
5717 5708 5697 5686 5677 5671 5667 5663 5660 5658 5658 5658 5660 5662 5663 5668 5672 5677 5679 5679 5678 5678 5680 5680 5682 5684 5684 5685 5686 5687 5688 5690 5692 5693 5695 5697 5698 5700 5702 5702 5703 5704 5706 5707 5704 5705 5707
5725 5717 5709 5700 5691 5683 5679 5676 5675 5674 5673 5673 5673 5674 5676 5677 5679 5679 5678 5678 5679 5679 5679 5679 5680 5681 5681 5682 5683 5683 5683 5684 5684 5686 5687 5688 5690 5692 5693 5694 5695 5696 5697 5696 5693 5693 5698
5733 5726 5718 5711 5704 5698 5692 5687 5684 5684 5685 5683 5683 5683 5682 5681 5680 5679 5678 5676 5677 5677 5677 5677 5677 5677 5677 5676 5676 5676 5676 5678 5678 5678 5679 5681 5681 5682 5683 5685 5685 5684 5687 5685 5686 5683 5686
5741 5735 5727 5720 5714 5708 5703 5700 5696 5692 5691 5689 5687 5686 5684 5683 5681 5680 5678 5676 5674 5672 5673 5673 5673 5673 5672 5672 5672 5671 5672 5671 5670 5670 5671 5672 5673 5673 5674 5675 5675 5674 5677 5675 5677 5673 5671
5752 5743 5737 5730 5724 5719 5714 5710 5706 5703 5700 5698 5694 5690 5687 5683 5681 5676 5673 5671 5669 5670 5670 5672 5672 5671 5670 5669 5669 5668 5667 5667 5666 5664 5664 5664 5664 5664 5665 5666 5666 5666 5667 5666 5664 5663 5662
5760 5753 5745 5739 5733 5728 5724 5720 5715 5711 5708 5704 5700 5697 5692 5688 5683 5679 5675 5671 5669 5670 5672 5674 5674 5674 5672 5671 5670 5669 5667 5666 5665 5663 5662 5661 5661 5662 5662 5662 5663 5663 5661 5661 5659 5658 5656
5767 5762 5756 5747 5741 5736 5731 5728 5724 5720 5715 5711 5708 5704 5700 5696 5690 5684 5678 5675 5673 5676 5674 5677 5677 5676 5674 5673 5671 5670 5667 5666 5664 5663 5662 5662 5662 5662 5662 5662 5660 5660 5658 5657 5655 5653 5651
5773 5768 5763 5757 5750 5744 5738 5735 5730 5726 5722 5718 5713 5709 5705 5700 5696 5690 5684 5681 5681 5679 5678 5680 5679 5678 5677 5675 5674 5671 5669 5667 5666 5665 5664 5663 5662 5661 5661 5660 5658 5656 5654 5654 5653 5650 5649
5777 5773 5767 5763 5759 5753 5747 5741 5736 5731 5727 5723 5719 5714 5710 5706 5701 5695 5690 5686 5685 5682 5682 5682 5681 5680 5679 5677 5676 5675 5672 5671 5669 5667 5666 5665 5664 5663 5661 5659 5657 5654 5653 5652 5649 5646 5644
5781 5777 5772 5767 5763 5759 5753 5749 5743 5737 5732 5727 5722 5718 5714 5709 5705 5700 5696 5691 5688 5687 5687 5686 5686 5684 5682 5681 5679 5677 5675 5673 5671 5670 5670 5667 5665 5663 5661 5659 5657 5653 5650 5649 5647 5645 5642
5787 5781 5777 5772 5767 5764 5760 5754 5749 5744 5738 5732 5726 5722 5718 5713 5709 5705 5701 5696 5693 5691 5690 5689 5688 5687 5686 5684 5682 5679 5677 5676 5674 5672 5671 5669 5666 5663 5661 5658 5655 5652 5649 5646 5643 5642 5638
5789 5785 5779 5776 5771 5766 5763 5759 5754 5749 5744 5738 5732 5727 5722 5717 5713 5709 5705 5700 5698 5696 5693 5691 5689 5688 5687 5686 5684 5682 5681 5678 5676 5675 5673 5671 5668 5667 5663 5660 5656 5653 5649 5645 5644 5642 5637
5792 5788 5784 5778 5774 5770 5765 5761 5758 5754 5749 5744 5738 5733 5726 5721 5717 5713 5709 5705 5702 5699 5696 5695 5692 5689 5687 5686 5685 5684 5682 5680 5678 5676 5674 5672 5669 5667 5665 5661 5657 5653 5650 5647 5645 5645 5642
5791 5790 5786 5781 5776 5772 5767 5763 5758 5756 5752 5748 5743 5737 5731 5725 5720 5716 5712 5709 5706 5702 5699 5696 5693 5692 5688 5686 5685 5684 5683 5681 5680 5677 5676 5673 5671 5669 5665 5663 5658 5655 5652 5649 5646 5646 5645
5791 5787 5785 5783 5778 5774 5770 5765 5760 5756 5753 5750 5745 5741 5735 5730 5724 5719 5715 5712 5709 5706 5702 5699 5696 5693 5691 5688 5685 5684 5682 5681 5678 5677 5675 5674 5671 5669 5667 5665 5662 5657 5654 5651 5650 5649 5646
5794 5789 5786 5784 5780 5776 5772 5767 5764 5758 5755 5752 5748 5744 5738 5733 5728 5723 5719 5714 5711 5708 5705 5701 5698 5695 5692 5690 5687 5685 5683 5681 5679 5677 5675 5674 5673 5671 5669 5667 5664 5661 5657 5654 5651 5649 5647
5794 5789 5785 5782 5781 5777 5773 5769 5764 5760 5756 5754 5750 5747 5742 5736 5731 5727 5723 5718 5713 5709 5706 5702 5700 5696 5693 5691 5689 5686 5683 5680 5679 5677 5675 5674 5673 5672 5670 5669 5665 5664 5662 5659 5656 5653 5650
5793 5790 5786 5782 5779 5777 5775 5771 5767 5764 5759 5755 5752 5748 5744 5739 5734 5730 5726 5722 5718 5712 5708 5704 5701 5698 5695 5692 5689 5687 5685 5682 5678 5676 5673 5673 5672 5672 5671 5670 5667 5666 5663 5661 5659 5656 5653
5792 5789 5785 5782 5779 5775 5773 5770 5766 5763 5760 5757 5753 5749 5746 5742 5737 5732 5728 5723 5720 5716 5711 5706 5702 5699 5698 5693 5690 5687 5685 5683 5679 5676 5673 5672 5672 5672 5672 5671 5671 5669 5666 5663 5662 5659 5655
5787 5786 5782 5779 5776 5773 5770 5768 5765 5762 5759 5756 5753 5751 5746 5743 5739 5734 5729 5725 5721 5717 5713 5708 5703 5700 5697 5694 5691 5688 5685 5684 5681 5677 5674 5672 5671 5672 5671 5670 5671 5669 5668 5666 5663 5662 5659
5782 5780 5778 5774 5772 5769 5767 5765 5762 5760 5757 5754 5751 5749 5746 5742 5739 5736 5731 5726 5723 5719 5715 5711 5706 5701 5698 5694 5691 5688 5685 5683 5681 5679 5676 5673 5671 5672 5671 5670 5670 5669 5667 5666 5663 5662 5660
5775 5774 5773 5770 5767 5765 5763 5761 5760 5759 5756 5753 5750 5747 5744 5741 5738 5735 5731 5728 5723 5718 5715 5712 5708 5704 5699 5695 5691 5688 5685 5682 5680 5679 5677 5675 5673 5672 5671 5670 5670 5669 5666 5664 5664 5664 5659
5767 5765 5765 5765 5763 5760 5758 5758 5755 5754 5752 5749 5747 5744 5742 5740 5737 5733 5730 5727 5724 5719 5715 5713 5709 5704 5700 5695 5692 5689 5685 5681 5679 5677 5676 5675 5673 5672 5671 5669 5670 5667 5666 5664 5662 5659 5657
5758 5757 5756 5757 5756 5754 5752 5750 5750 5749 5748 5746 5744 5742 5739 5736 5734 5731 5727 5726 5722 5718 5715 5712 5708 5703 5699 5695 5691 5689 5684 5682 5679 5676 5672 5674 5673 5671 5669 5668 5666 5664 5663 5661 5658 5656 5655